• En España
  • Lista de países
  • Para 7 días
  • Temperatura del agua
  • Mapa Satelital
  • El tiempo en el mapa
  • Informadores
  • user-avatar
    Iniciar sesión

    Tiempo cada hora Klevcovo

    Hoy, 23 Octubre, Martes

    Tiempo Temperatura Precipitaciones Viento Presión Humedad
    00:00 +5°C° 0.8 mm 4 mps 739 mmHg 87%
    01:00 +5°C° 0.8 mm 4 mps 738 mmHg 88%
    02:00 +5°C° 0 mm 4 mps 737 mmHg 91%
    03:00 +5°C° 0.9 mm 4 mps 737 mmHg 91%
    04:00 +5°C° 0.9 mm 3 mps 737 mmHg 91%
    05:00 +5°C° 0.9 mm 3 mps 736 mmHg 91%
    06:00 +5°C° 0.1 mm 3 mps 736 mmHg 89%
    07:00 +5°C° 0.1 mm 3 mps 736 mmHg 88%
    08:00 +5°C° 0 mm 3 mps 736 mmHg 86%
    09:00 +5°C° 0 mm 3 mps 736 mmHg 82%
    10:00 +5°C° 0 mm 3 mps 736 mmHg 78%
    11:00 +7°C° 0 mm 3 mps 736 mmHg 74%
    12:00 +7°C° 0 mm 2 mps 735 mmHg 73%
    13:00 +7°C° 0 mm 2 mps 734 mmHg 71%
    14:00 +7°C° 0 mm 2 mps 734 mmHg 69%
    15:00 +6°C° 0 mm 2 mps 734 mmHg 73%
    16:00 +6°C° 0 mm 1 mps 733 mmHg 77%
    17:00 +5°C° 0 mm 1 mps 733 mmHg 81%
    18:00 +4°C° 0 mm 2 mps 732 mmHg 83%
    19:00 +4°C° 0 mm 2 mps 731 mmHg 84%
    20:00 +4°C° 0 mm 2 mps 731 mmHg 85%
    21:00 +3°C° 0 mm 2 mps 730 mmHg 86%
    22:00 +3°C° 0 mm 2 mps 729 mmHg 87%
    23:00 +3°C° 0 mm 2 mps 729 mmHg 88%

    Mañana, 24 Octubre, Miércoles

    Tiempo Temperatura Precipitaciones Viento Presión Humedad
    00:00 +3°C° 0 mm 2 mps 728 mmHg 88%
    01:00 +3°C° 0 mm 2 mps 728 mmHg 89%
    02:00 +3°C° 0 mm 2 mps 727 mmHg 89%
    03:00 +3°C° 0.1 mm 2 mps 726 mmHg 89%
    04:00 +3°C° 0.1 mm 2 mps 726 mmHg 89%
    05:00 +3°C° 0.1 mm 2 mps 725 mmHg 90%
    06:00 +3°C° 0.3 mm 2 mps 725 mmHg 89%
    07:00 +2°C° 0.3 mm 3 mps 725 mmHg 89%
    08:00 +2°C° 0.3 mm 3 mps 724 mmHg 89%
    09:00 +3°C° 0.2 mm 3 mps 724 mmHg 86%
    10:00 +3°C° 0.2 mm 3 mps 724 mmHg 84%
    11:00 +4°C° 0.2 mm 3 mps 724 mmHg 82%
    12:00 +5°C° 0.1 mm 2 mps 724 mmHg 81%
    13:00 +5°C° 0.1 mm 2 mps 724 mmHg 80%
    14:00 +5°C° 0.1 mm 2 mps 724 mmHg 79%
    15:00 +5°C° 0.1 mm 2 mps 724 mmHg 82%
    16:00 +4°C° 0.1 mm 2 mps 724 mmHg 85%
    17:00 +4°C° 0.1 mm 2 mps 724 mmHg 88%
    18:00 +4°C° 0.2 mm 2 mps 724 mmHg 88%
    19:00 +4°C° 0.2 mm 2 mps 725 mmHg 89%
    20:00 +4°C° 0.2 mm 2 mps 725 mmHg 90%
    21:00 +3°C° 0.1 mm 2 mps 725 mmHg 90%
    22:00 +2°C° 0.1 mm 3 mps 725 mmHg 90%
    23:00 +2°C° 0.1 mm 3 mps 724 mmHg 91%

    Pasado mañana, 25 Octubre, Jueves

    Tiempo Temperatura Precipitaciones Viento Presión Humedad
    00:00 +2°C° 0.1 mm 3 mps 724 mmHg 91%
    01:00 +2°C° 0.1 mm 3 mps 724 mmHg 91%
    02:00 +2°C° 0.1 mm 3 mps 724 mmHg 90%
    03:00 +2°C° 0.1 mm 3 mps 724 mmHg 90%
    04:00 +1°C° 0.1 mm 4 mps 724 mmHg 89%
    05:00 +1°C° 0.1 mm 4 mps 724 mmHg 89%
    06:00 +1°C° 0.1 mm 4 mps 724 mmHg 88%
    07:00 +1°C° 0.1 mm 4 mps 724 mmHg 87%
    08:00 +1°C° 0.1 mm 4 mps 724 mmHg 85%
    09:00 +1°C° 0.1 mm 4 mps 724 mmHg 83%
    10:00 +1°C° 0.1 mm 4 mps 724 mmHg 82%
    11:00 +1°C° 0.1 mm 5 mps 724 mmHg 80%
    12:00 +1°C° 0.1 mm 5 mps 724 mmHg 79%
    13:00 +1°C° 0.1 mm 5 mps 724 mmHg 77%
    14:00 +1°C° 0.1 mm 5 mps 724 mmHg 76%
    15:00 +1°C° 0.1 mm 5 mps 724 mmHg 77%
    16:00 0°C° 0.1 mm 5 mps 725 mmHg 77%
    17:00 0°C° 0.1 mm 4 mps 725 mmHg 78%
    18:00 0°C° 0 mm 4 mps 725 mmHg 79%
    19:00 0°C° 0 mm 4 mps 725 mmHg 79%
    20:00 0°C° 0 mm 4 mps 725 mmHg 80%
    21:00 -1°C° 0 mm 4 mps 725 mmHg 81%
    22:00 -1°C° 0 mm 4 mps 725 mmHg 82%
    23:00 -1°C° 0 mm 4 mps 725 mmHg 82%

    26 Octubre, Viernes

    Tiempo Temperatura Precipitaciones Viento Presión Humedad
    00:00 -1°C° 0 mm 4 mps 725 mmHg 84%
    01:00 -2°C° 0 mm 4 mps 725 mmHg 85%
    02:00 -2°C° 0 mm 4 mps 726 mmHg 87%
    03:00 -2°C° 0 mm 4 mps 726 mmHg 88%
    04:00 -2°C° 0 mm 4 mps 726 mmHg 89%
    05:00 -2°C° 0 mm 4 mps 726 mmHg 90%
    06:00 -2°C° 0 mm 4 mps 726 mmHg 88%
    07:00 -1°C° 0 mm 4 mps 727 mmHg 86%
    08:00 -1°C° 0 mm 4 mps 727 mmHg 85%
    09:00 -1°C° 0 mm 4 mps 727 mmHg 82%
    10:00 0°C° 0 mm 4 mps 727 mmHg 80%
    11:00 0°C° 0 mm 4 mps 728 mmHg 78%
    12:00 +1°C° 0 mm 4 mps 728 mmHg 77%
    13:00 +1°C° 0 mm 4 mps 728 mmHg 75%
    14:00 +1°C° 0 mm 4 mps 728 mmHg 74%
    15:00 +1°C° 0 mm 4 mps 729 mmHg 76%
    16:00 0°C° 0 mm 4 mps 729 mmHg 77%
    17:00 0°C° 0 mm 4 mps 729 mmHg 79%
    18:00 0°C° 0 mm 4 mps 729 mmHg 80%
    19:00 0°C° 0 mm 4 mps 730 mmHg 80%
    20:00 +1°C° 0 mm 3 mps 730 mmHg 81%
    21:00 +1°C° 0 mm 3 mps 730 mmHg 83%
    22:00 -1°C° 0 mm 4 mps 730 mmHg 86%
    23:00 -1°C° 0 mm 4 mps 731 mmHg 88%

    27 Octubre, Sábado

    Tiempo Temperatura Precipitaciones Viento Presión Humedad
    00:00 -1°C° 0 mm 4 mps 731 mmHg 88%
    01:00 0°C° 0 mm 3 mps 731 mmHg 88%
    02:00 0°C° 0 mm 3 mps 732 mmHg 87%
    03:00 0°C° 0 mm 3 mps 732 mmHg 87%
    04:00 0°C° 0 mm 3 mps 732 mmHg 86%
    05:00 +1°C° 0 mm 2 mps 732 mmHg 86%
    06:00 +1°C° 0 mm 2 mps 732 mmHg 86%
    07:00 +1°C° 0 mm 2 mps 732 mmHg 87%
    08:00 +1°C° 0 mm 2 mps 731 mmHg 87%
    09:00 +1°C° 0.2 mm 3 mps 731 mmHg 86%
    10:00 +1°C° 0.2 mm 3 mps 730 mmHg 85%
    11:00 +1°C° 0.2 mm 4 mps 729 mmHg 84%
    12:00 +1°C° 0.7 mm 4 mps 728 mmHg 85%
    13:00 +1°C° 0.7 mm 4 mps 727 mmHg 85%
    14:00 +1°C° 0.7 mm 5 mps 726 mmHg 86%
    15:00 +1°C° 1.3 mm 4 mps 725 mmHg 88%
    16:00 +3°C° 1.3 mm 4 mps 725 mmHg 90%
    17:00 +3°C° 1.3 mm 3 mps 724 mmHg 92%
    18:00 +3°C° 0.6 mm 3 mps 725 mmHg 92%
    19:00 +1°C° 0.6 mm 4 mps 725 mmHg 91%
    20:00 +1°C° 0.6 mm 4 mps 725 mmHg 91%
    21:00 +1°C° 0.3 mm 5 mps 727 mmHg 89%
    22:00 -1°C° 0.3 mm 6 mps 728 mmHg 88%
    23:00 -2°C° 0.3 mm 7 mps 729 mmHg 86%

    28 Octubre, Domingo

    Tiempo Temperatura Precipitaciones Viento Presión Humedad
    00:00 -2°C° 0.3 mm 6 mps 731 mmHg 85%
    01:00 -2°C° 0.3 mm 6 mps 733 mmHg 85%
    02:00 -3°C° 0.3 mm 6 mps 734 mmHg 84%
    03:00 -2°C° 0 mm 5 mps 735 mmHg 84%
    04:00 -4°C° 0 mm 5 mps 736 mmHg 84%
    05:00 -4°C° 0 mm 4 mps 738 mmHg 84%
    06:00 -3°C° 0 mm 4 mps 739 mmHg 84%
    07:00 -3°C° 0 mm 4 mps 739 mmHg 84%
    08:00 -3°C° 0 mm 4 mps 740 mmHg 84%
    09:00 -2°C° 0 mm 4 mps 741 mmHg 81%
    10:00 -2°C° 0 mm 4 mps 742 mmHg 78%
    11:00 -1°C° 0 mm 4 mps 743 mmHg 75%
    12:00 -1°C° 0 mm 4 mps 744 mmHg 74%
    13:00 -1°C° 0 mm 4 mps 744 mmHg 73%
    14:00 -1°C° 0 mm 4 mps 745 mmHg 72%
    15:00 -1°C° 0 mm 4 mps 746 mmHg 76%
    16:00 -1°C° 0 mm 3 mps 746 mmHg 80%
    17:00 -2°C° 0 mm 3 mps 747 mmHg 84%
    18:00 -2°C° 0 mm 3 mps 747 mmHg 86%
    19:00 -2°C° 0 mm 3 mps 748 mmHg 88%
    20:00 -3°C° 0 mm 2 mps 748 mmHg 89%
    21:00 -3°C° 0 mm 2 mps 749 mmHg 90%
    22:00 -3°C° 0 mm 2 mps 749 mmHg 91%
    23:00 -3°C° 0 mm 2 mps 750 mmHg 92%

    29 Octubre, Lunes

    Tiempo Temperatura Precipitaciones Viento Presión Humedad
    00:00 -4°C° 0 mm 2 mps 750 mmHg 92%
    01:00 -4°C° 0 mm 2 mps 751 mmHg 92%
    02:00 -4°C° 0 mm 2 mps 751 mmHg 92%
    03:00 -4°C° 0 mm 2 mps 751 mmHg 92%
    04:00 -4°C° 0 mm 2 mps 751 mmHg 92%
    05:00 -4°C° 0 mm 2 mps 752 mmHg 92%
    06:00 -2°C° 0 mm 1 mps 752 mmHg 90%
    07:00 -2°C° 0 mm 1 mps 752 mmHg 88%
    08:00 -2°C° 0 mm 1 mps 752 mmHg 86%
    09:00 -1°C° 0 mm 1 mps 753 mmHg 81%
    10:00 0°C° 0 mm 1 mps 753 mmHg 76%
    11:00 +1°C° 0 mm 1 mps 753 mmHg 70%
    12:00 +1°C° 0 mm 1 mps 753 mmHg 69%
    13:00 +1°C° 0 mm 1 mps 753 mmHg 69%
    14:00 +1°C° 0 mm 1 mps 753 mmHg 68%
    15:00 0°C° 0 mm 1 mps 753 mmHg 73%
    16:00 0°C° 0 mm 1 mps 753 mmHg 78%
    17:00 -1°C° 0 mm 1 mps 753 mmHg 83%
    18:00 -1°C° 0 mm 1 mps 753 mmHg 85%
    19:00 -1°C° 0 mm 1 mps 753 mmHg 86%
    20:00 -4°C° 0 mm 2 mps 753 mmHg 88%
    21:00 -4°C° 0 mm 2 mps 753 mmHg 88%
    22:00 -4°C° 0 mm 2 mps 753 mmHg 89%
    23:00 -4°C° 0 mm 2 mps 753 mmHg 89%
    Mostrar más